GFSCGP_prec_radar_102.txt.gz
Reflectivity
-20 -20 -20 -20 -20 -20 -20 -20 -20 -15 25 30 28 18 -20 -20 -14 5 -20 -8 -20 19 6 -20 -20 -20 -20 -20 -20 -20 -20 -20 -20 -20 -20 -20 -20 -20 -20 -18 -20 -20 -20 -20
-20 -20 -20 -20 -20 -20 -13 -20 -20 -1 -12 32 28 28 -20 -20 -6 34 -20 -7 -20 -17 -20 -20 18 -20 -20 -20 -20 -20 -20 -20 -20 -20 -20 -20 -20 -20 -20 -20 -20 -20 -20 -20
-20 -20 -20 -20 -20 -20 0 -20 -8 8 7 31 35 29 32 25 2 -9 21 -20 -20 -20 -20 -20 -20 -20 -20 -20 -20 -20 -20 -20 -20 -20 -20 -20 -20 -20 -9 -20 -20 -20 -20 -20
-20 -20 -20 -20 -20 -20 4 9 -20 -17 -20 -10 11 21 29 24 22 20 18 -19 -20 -20 -20 -20 -20 -20 -20 -20 -20 -20 -20 -20 -20 -20 -20 -20 -20 -20 -20 -6 -20 -18 -20 -20
-20 -20 -20 -20 -20 -20 -15 3 -20 -5 -20 -20 -20 2 -20 25 15 25 25 20 -20 -20 -20 -20 -20 -20 -20 -20 -20 -20 -20 -20 -20 -20 -20 -20 -20 -20 -20 -20 -20 -20 -20 -20
-20 -20 -20 -20 -20 -20 -20 -20 -20 -20 -17 -20 -19 -2 -20 1 -11 -20 -20 -0 -5 -9 -20 -20 -20 -20 -20 -20 -20 -20 -20 -20 -20 -20 -20 -20 -20 -20 -20 -20 -20 -20 -20 -20
-20 -20 -20 -20 -20 -20 -20 -20 -20 -15 -14 -20 -20 -20 -20 -20 -20 -20 -20 -19 -20 11 -1 -20 -20 -20 -20 -20 -20 -20 -20 -20 -20 -20 -20 -20 -20 -20 -20 -20 -20 -20 -20 -20
-20 -20 -20 -20 -20 -20 -20 -20 -20 -20 -20 -20 -20 -20 -20 -20 -20 -20 -17 -10 -17 5 13 8 -19 -20 -16 -14 -20 -20 -20 -20 -20 -20 -20 -20 -20 28 6 -20 -20 -20 -20 -20
-20 -20 -20 -20 -20 -20 -20 -20 -20 -20 -20 -20 -20 -20 -20 -20 -20 -20 -18 -20 -20 -20 -12 -13 -20 -16 -20 12 6 -12 -16 -17 -20 -20 -20 -20 -20 -20 -20 -20 -20 -20 -20 -20
-20 -20 -20 -20 -20 -20 -20 -20 -20 -20 -20 -20 -20 -20 -20 -20 -1 -20 -20 -20 -11 5 -20 -14 7 13 -18 8 -10 -20 -18 -2 -1 -20 -20 -20 -20 -20 -20 -20 -20 11 -20 -20
-20 -20 -20 -20 -20 -20 -20 -20 -20 -20 -20 -20 -20 -20 -20 -20 -14 -12 -20 -12 1 -17 -20 -20 -20 -11 11 33 -1 13 21 17 36 -20 -20 -20 -20 -20 -20 -20 -20 -20 -20 -20
-20 -20 -20 -20 -20 -20 -20 -20 -20 -20 -20 -20 -20 -20 -20 -20 -20 -20 -16 4 28 24 -9 -20 -20 22 18 24 -7 -20 29 -20 6 5 -19 -20 -20 -20 -20 -20 -20 -20 -20 -20
-20 -20 -20 -20 -20 -20 -20 -20 -20 -20 -20 -20 -20 -20 -3 -20 -17 30 -14 7 14 9 -3 -20 3 -12 25 30 28 29 23 26 -8 -20 -16 -15 -20 -20 -13 -20 -20 -20 -0 -17
-20 -20 -20 -20 -20 -20 -20 -20 -20 -20 -20 -20 -20 -20 3 6 9 5 -6 -1 5 10 -9 -6 -3 -20 27 26 27 39 30 36 41 2 22 21 -15 -20 -20 -20 -20 -20 -20 -20
-20 -20 -20 -20 -20 -20 -20 -20 -20 -20 -20 -20 -20 -20 -20 -13 11 11 -2 0 5 9 -6 -18 9 19 1 24 37 27 33 23 1 23 -3 32 23 -20 -20 -20 -20 -20 -20 -20
-20 -20 -20 -20 -20 -20 -20 -20 -20 -20 -20 -20 -20 -20 -20 -20 -17 -19 -13 -20 -20 -20 12 9 1 17 22 -0 20 27 12 18 9 24 17 29 40 29 -11 -20 -20 -20 -20 -20
-20 -20 -20 -20 -20 -20 -20 -20 -20 -20 -20 -20 -20 -20 -20 -20 -20 -20 -20 -20 -20 -20 -14 11 -5 2 14 15 20 16 16 -7 -15 7 10 16 29 11 -20 -15 -20 9 -16 -20
-6 -15 -20 -20 -20 -20 -14 -20 -20 -20 -20 -20 -20 -20 -20 -20 -20 -20 -20 -20 -20 -20 -20 -9 1 0 -4 -1 -6 -20 -20 1 1 -5 10 5 2 12 12 26 18 -1 16 11
-20 11 3 6 -20 -20 -20 -3 6 -20 -20 -20 -20 -20 -20 -20 -20 -20 -20 -20 -20 -14 -15 -20 -20 -20 -15 11 9 11 -13 -4 12 -1 -8 15 -4 -20 1 10 21 26 16 10
-20 -10 9 15 -17 -1 -18 -20 -20 -20 -20 -20 -20 -20 -20 -20 -20 -20 -20 -2 13 13 15 9 -5 -20 -20 -18 -13 0 -7 2 5 9 0 -20 -4 -19 -20 -19 -12 -13 -13 15
-20 -20 -20 -20 -20 -20 -20 -20 -20 -20 -20 -20 -20 -20 -20 -20 -20 -20 -18 -11 -2 -20 -12 -11 -20 -20 -20 -20 -20 -20 -20 -20 -20 -20 -20 -10 -20 -17 -18 -20 -11 -18 -3 -4
-20 -20 -20 -20 -20 -20 -20 -20 -20 -20 21 -20 -20 -20 -20 26 19 -10 -20 -20 -20 -20 -20 -20 -20 -20 -20 -20 -20 -20 -20 -20 -20 -20 -20 -20 -14 -20 -20 -15 -14 -20 -20 -16
-20 -20 -20 -20 -20 -20 -20 -20 -20 -20 -19 18 -20 10 23 24 23 25 21 -20 -20 -20 -20 -20 -20 -20 -20 -20 -20 -20 -20 -20 -20 -20 -20 -20 -20 -20 -20 -20 -20 -15 -20 -20
-20 -20 -20 -20 -20 -20 -20 -20 -20 -20 -20 -20 -20 23 18 13 21 27 32 34 20 -18 -20 -20 -20 -20 -20 -20 -20 -20 -20 -20 -20 -20 -20 -20 -20 -20 -20 -20 -20 -20 -17 -20
-20 -20 -20 -20 -20 -20 -20 -20 -20 -20 -20 -20 -9 23 21 14 20 24 29 22 30 12 3 -12 -20 -20 -20 -20 -20 -20 -17 -20 -20 -20 -20 -20 -20 -20 -20 -20 -20 -20 -20 -20
-20 -20 -20 -20 -20 -20 -20 -20 -20 -20 -20 -20 -20 -1 22 2 -4 20 30 34 32 28 4 -8 -15 -20 -20 -20 -20 -20 -20 -20 -20 -20 -20 -20 -20 -20 -20 -20 -20 -20 -20 -20

GFSCGP_prec_radar_105.txt.gz
Reflectivity
-20 -20 -20 -20 -20 -20 -20 -20 0 3 -6 23 0 25 12 37 -13 19 -20 -20 -20 -20 -20 -20 -20 -20 -20 -20 -20 -20 -20 -20 -20 -20 -20 -20 -20 -20 -20 -20 -20 -20 -20 -20
-20 -20 -20 -20 -20 -20 -20 -18 11 -7 25 28 32 8 25 28 6 -10 -20 -20 -20 -20 -20 -20 -20 -20 -20 -20 -20 -20 -20 -20 -20 -20 -20 -20 -20 -20 -20 -20 -20 -20 -20 -20
-20 -20 -20 -20 -20 -20 -20 -20 -5 -20 -14 3 27 32 13 25 16 -2 12 -20 -20 -20 -20 -20 -20 -20 -20 -20 -20 -20 -20 -20 -20 -20 -20 -20 -20 -20 -9 7 -20 -20 -20 -20
-20 -20 -20 -20 -20 -20 -16 -20 -20 -16 -20 -20 12 40 14 0 32 32 -5 -20 -20 -20 -20 -20 -20 -20 -20 -20 -20 -20 -20 -20 -20 -20 -20 4 -15 30 28 19 22 -20 -20 -20
-20 -20 -20 -20 -20 -20 -20 4 -19 -20 -20 -20 6 25 31 17 14 4 4 -20 -20 -20 -20 -20 -20 -20 -20 -20 -20 -20 -20 -20 -20 -20 -20 -20 -20 -20 -19 -20 29 31 -20 16
-20 -20 -20 -20 -20 -0 -20 -20 -20 -20 -20 -1 -20 -2 14 16 -12 -15 19 28 -20 -20 -20 -20 -20 -20 -20 -20 -20 -20 -20 -20 -20 -20 -20 -20 27 32 -13 -20 -20 -10 -20 -20
-20 -20 -20 -20 -20 -20 -20 -20 -20 -20 -14 -2 -20 -20 5 4 -14 -3 2 -16 -5 -20 -20 -20 -20 -20 -20 -20 -20 -20 -20 -20 -20 -20 -20 -20 31 -20 -20 0 -20 -20 -20 -15
-20 -20 -20 -20 -20 -20 -20 -20 -20 -20 -20 1 -5 -20 -20 3 -17 -6 -18 -20 -20 -20 -20 -20 -20 -20 -20 -20 -20 -20 -20 -20 -20 -20 -20 -20 -20 -20 -20 -20 -20 -20 3 11
-20 -20 -20 -20 -20 -20 -20 -20 -20 -20 -20 -20 -12 -20 -20 -20 -20 -20 -20 -20 -11 -9 -20 -20 -20 -20 -20 -20 -20 -20 -20 -20 -20 -20 -20 -20 -20 -20 1 -20 -20 -20 -20 -20
-20 -20 -20 -20 -20 -20 -20 -20 -20 -20 -20 -20 -20 -4 -10 -20 -18 -20 -20 -20 -20 -18 -18 -8 -13 0 -20 -15 -4 -20 -20 -18 -20 -20 -11 -20 -20 -20 -20 -20 -18 -20 -20 -20
-20 -20 -20 -20 -20 -20 -20 -20 -20 -20 -20 -20 -14 -20 -18 -1 -20 -12 -20 -20 -20 13 -20 -20 -19 -15 -20 18 -6 -5 -19 -20 -20 -0 -20 1 -20 -20 -20 14 30 -20 -20 -20
-20 -20 -20 -20 -20 -20 -20 -20 -20 -20 -20 -20 -20 -20 -20 -19 -20 -20 -10 -20 -19 -20 -20 -20 -20 -20 3 19 -6 -5 -20 -20 -20 -20 -20 -20 -20 -20 -20 -20 26 35 35 -20
-20 -20 -20 -20 -20 -20 -20 -20 -20 -20 -20 -20 -20 -20 -11 4 3 4 -20 -20 -20 -20 -6 -20 -18 21 15 -6 6 28 12 6 -20 -19 -2 -11 -5 -20 -20 -20 -20 -20 9 -20
-20 -20 -20 -20 -20 -20 -20 -20 -20 -20 -20 -20 -20 -20 -5 5 4 5 6 1 -8 1 22 -0 6 10 11 19 25 37 21 23 14 11 -2 -11 -19 -20 -5 -20 -20 -20 -20 -20
-20 -20 -20 -20 -20 -20 -20 -20 -20 -20 -20 -20 -20 -20 -20 -20 -20 5 -20 -20 -14 -20 -8 11 6 -3 8 29 23 29 28 34 31 28 31 24 14 -8 -20 -20 -20 -20 -20 -20
-20 -20 -20 -20 -20 -20 -20 -20 -20 -20 -20 -20 -20 -20 -20 -20 -20 -18 -1 -0 -17 -20 18 -13 12 -4 -20 2 24 10 14 16 22 31 29 30 31 38 14 16 -20 -20 -20 -20
-20 -20 -20 -20 -20 -20 -17 -20 -20 -20 -20 -20 -20 -20 -20 -20 -20 -20 2 5 5 -5 3 -19 7 29 13 23 -20 1 7 13 18 23 27 30 27 30 5 21 -18 -20 -20 -20
-20 -20 -20 -20 -20 -20 -20 -20 -20 -20 -20 -20 -20 -20 -17 -20 -19 10 -20 -20 -12 -19 -19 12 6 30 22 12 -3 -11 2 -12 14 21 14 17 -18 2 30 11 1 0 -20 -20
-20 -20 -20 -20 -20 -20 -20 -20 -20 -20 -20 -20 -20 -20 0 -16 -4 -19 2 -15 -20 -20 -13 14 2 11 7 21 22 20 3 -8 -12 -6 7 8 -20 -20 -11 -13 -17 21 21 3
-4 -1 1 -19 -20 -7 -20 -20 -20 -20 -20 -20 -20 -20 -15 24 7 -20 -20 8 -20 -20 -20 5 27 23 19 20 25 14 -9 15 -20 -20 -20 -3 12 12 -19 -20 -20 -19 7 14
-20 -20 -20 -20 11 -10 -20 -20 -20 -20 -20 -20 -20 -20 -18 -20 -20 -14 -19 -20 -20 -20 -20 -11 11 10 12 12 9 17 7 4 11 -16 -9 -17 -20 6 19 -5 -20 -20 -20 -20
-20 -20 -20 -20 -14 -20 -20 -20 -20 -20 -20 -20 -20 -20 -20 -15 11 -14 -20 -20 -20 -20 -20 -15 14 2 -13 -20 -20 -20 -20 -20 -20 -20 -20 -20 -20 -20 -20 4 12 9 5 -18
-20 -20 -20 -20 -20 -20 -20 -20 -20 -20 -20 -20 -20 -20 -20 -20 25 25 20 -2 -20 -20 -20 -1 -20 -20 -20 -20 -20 -20 -20 -20 -20 -20 -20 -20 -20 -20 -20 -20 -20 -20 -14 1
-20 -20 -20 -20 -20 -20 -20 -20 -20 -20 -20 -20 -20 -20 -16 -18 22 23 19 15 2 -20 -20 -20 -20 -20 -20 -20 -20 -20 -20 -20 -20 -20 -20 -20 -20 -20 -20 -20 -20 -20 -20 -20
-20 -20 -20 -20 -20 -20 -20 -20 -20 -20 -20 -20 -20 -14 -20 -20 -19 11 19 -19 13 -9 -16 -20 -20 -20 -20 -20 -20 -20 -20 -20 -20 -20 -20 -20 -20 -20 -20 -20 -20 -20 -20 -20
-20 -20 -20 -20 -20 -20 -20 -20 -20 -20 -20 -20 -20 -20 2 21 20 -5 20 -2 24 37 21 16 -5 -20 -20 -20 -20 -20 -20 -20 -20 -20 -20 -20 -20 -20 -20 -20 -20 -20 -20 -20

GFSCGP_prec_radar_111.txt.gz
Reflectivity
-20 -20 -20 -20 -20 2 20 2 15 20 33 30 38 35 17 28 10 -18 -20 -20 7 -4 -8 -20 -20 -20 -20 -20 -20 -20 6 -20 -20 -20 -20 -20 -9 4 6 9 -20 -20 -20 -20
-20 -20 -20 -20 -16 -20 15 -4 33 30 20 38 33 37 26 31 22 24 -13 -19 -20 -20 -20 -20 -20 -20 -20 -20 -11 -4 -10 -20 -20 -20 14 -3 -6 -20 12 -7 -20 -19 8 -20
-20 -20 -20 -19 18 -20 1 34 35 16 24 32 36 41 28 19 -11 -12 9 0 -17 -10 6 -20 -20 -20 -20 -20 -20 -20 -16 -20 -20 -13 -14 -0 -5 -20 -20 2 -20 -20 -20 -20
-20 -20 -20 -20 -20 -20 -11 10 -17 31 19 29 23 38 42 19 19 8 14 23 1 26 1 -10 -20 18 -20 -20 -20 -20 -15 -20 -20 -20 6 -20 -20 -20 -20 -20 -20 -17 -20 -8
-20 -20 -20 -20 -20 -20 3 -20 45 34 -3 16 17 21 34 35 12 16 -9 15 11 -15 11 10 -20 -20 -18 -20 -20 -20 -20 -20 -20 -20 -3 -20 -18 -20 -20 4 -7 -20 -20 -20
-20 -20 -20 -20 -19 -18 -20 -20 3 14 -2 -18 9 13 21 21 25 14 23 -10 -20 -16 -20 29 -20 25 24 -13 -20 -20 -20 -20 -20 -20 -20 5 -20 30 15 -20 -20 -20 -20 -20
-20 -20 -20 -20 -20 -18 -20 -20 27 -11 5 11 19 3 15 2 26 7 -19 -1 -10 30 -17 -14 4 12 -16 10 -20 -20 -20 -20 -20 -20 -20 -20 -20 -20 -20 -20 -20 9 -13 -4
-20 -20 -20 -20 -20 -20 -20 -20 20 26 -8 16 -15 7 25 9 19 9 -20 19 32 -12 18 8 -3 24 12 -20 -20 -20 -20 -20 -20 -20 -20 -20 -20 -20 -20 -20 13 -20 -18 -20
-20 -20 -20 -20 -20 -20 -20 -20 -20 32 -17 24 29 -20 9 -3 7 -2 -20 -14 -19 17 -20 3 -16 27 -20 -20 -20 -20 -20 -20 -20 -20 -20 -20 -20 -20 -20 -20 8 -18 -20 -16
-20 -20 -20 -20 -20 -20 -20 -20 -20 -9 -13 -20 -14 12 7 -1 -20 -19 -20 -20 -20 -20 5 -20 -8 -20 23 -20 -20 -20 -20 -20 -20 -20 -20 -20 -20 -20 -20 -20 -20 -15 13 3
-20 -20 -20 -20 -20 -20 -20 -20 -20 -6 -12 11 12 9 30 -10 -2 -18 -20 -15 -18 -19 -17 5 -19 -5 -20 20 -4 5 -20 -20 -20 -20 -20 -20 -20 -20 -20 -20 -20 -20 -17 -20
-20 -20 -20 -20 -20 -20 -20 -20 -20 -20 -20 -20 15 12 32 0 1 -3 -20 -20 -20 -20 -5 -20 -20 24 -20 -20 -16 -19 -20 -20 -20 -20 -20 -20 -20 -20 -20 -20 -20 -20 -20 -20
-15 -20 -20 -17 -7 -20 -20 -20 -20 -20 -20 -20 -20 11 -7 19 -20 -9 -20 -20 -20 -9 6 -10 -20 -9 -15 -18 -18 -20 -20 -20 -20 -20 -20 -20 -19 -20 -20 -20 -20 -20 -20 -20
-20 -20 -11 14 21 6 -12 -20 -20 -20 -20 -20 -20 12 -17 -5 -16 -20 -20 -20 -20 -13 9 -20 -5 26 18 16 -5 -6 -10 -11 -7 12 8 16 7 -20 -20 -20 -20 -20 -20 -20
-20 -20 -20 19 -6 -11 6 -14 -20 -20 -20 -10 -10 -11 20 -8 -20 -20 -20 -20 -4 -20 -20 -20 -7 1 8 33 19 21 15 32 31 15 -3 14 33 15 -20 -20 -20 -20 -20 -20
-20 -20 -20 -19 4 1 -20 -11 -7 -20 -20 -20 -10 15 -20 30 -20 -20 -20 -16 4 -5 -20 -20 1 5 -0 4 -20 6 30 12 -5 -2 18 27 28 33 32 28 -18 25 -20 -20
-20 -7 -18 -20 -5 7 3 -7 -20 -20 -20 -20 -13 -20 -8 33 33 -7 -5 -17 -15 -1 -20 21 -7 14 7 -1 -6 -1 -2 13 -6 -8 -14 -7 9 27 15 29 20 29 1 -4
-20 -20 5 8 -20 -20 -13 -6 -3 -18 24 -20 10 6 34 -2 10 -9 -10 5 9 -16 -3 12 -12 -10 -20 -20 6 -2 28 -6 13 9 20 7 17 24 29 29 30 29 26 19
-20 -12 8 -19 28 18 23 -4 -20 -20 -2 8 -20 26 20 -20 -20 -16 -20 4 -5 -1 22 -13 -17 7 -20 -19 -9 31 16 3 -20 -7 -18 -16 7 -17 1 19 27 24 32 29
-18 -20 -20 25 -17 29 30 29 -20 -20 -20 45 18 -20 -20 -20 -20 -2 -4 -20 -20 -20 -13 -20 -20 -20 16 25 -1 26 -5 -20 -20 -20 -17 -1 16 -7 6 9 13 10 8 24
-16 6 -20 -20 -20 12 25 13 17 5 23 -9 15 -19 -14 -2 -16 -20 -20 -16 -20 -18 -20 -20 0 4 -12 9 10 -20 -20 -14 -11 -2 5 5 -12 -5 -12 4 15 -20 -1 16
-14 -0 14 -16 -2 -1 -17 -19 7 23 10 -20 -20 -20 -20 1 1 -20 -20 -20 -20 -20 -20 -18 -9 -19 -9 15 21 22 -5 -13 -9 9 19 14 -11 -20 -11 -4 1 -14 -20 -19
-17 -20 -20 -17 27 -17 -20 -20 -20 -20 -20 -20 -20 5 -20 1 -20 -20 -10 -20 -20 -20 -20 -20 -19 -2 5 -18 5 0 21 17 25 18 -0 16 21 -20 -12 5 0 -20 2 -7
-20 -20 -20 -20 -18 -20 -20 -20 -20 -20 -20 -20 -20 -20 -20 -12 -16 -4 1 28 9 17 -20 1 -20 -20 -3 12 11 8 21 5 22 12 21 13 10 16 -6 -20 -20 -20 -20 -20
-9 -17 -20 -20 -20 -20 -20 -20 -20 -20 -20 -20 -20 -20 -20 -13 1 3 -1 -4 6 -17 -20 -20 -20 -20 -20 -17 -1 13 3 -2 9 -1 8 -2 -17 -15 -20 -20 -20 -20 -20 -20
-20 -20 -20 -20 -17 -20 -19 -20 -20 -20 -20 -20 -20 -20 -5 -20 -5 9 -13 18 -20 -9 14 19 -19 -20 -20 -20 -20 -20 -20 -20 -20 -20 -20 -20 -20 -20 -20 -20 -20 -20 -20 -20

GFSCGP_prec_radar_117.txt.gz
Reflectivity
-20 -20 -20 -20 -20 -20 21 -6 27 33 30 33 34 32 3 -18 -20 -20 26 2 -20 -20 -20 -20 -20 -20 -20 -20 -20 -20 -20 -20 -20 -20 -20 -17 -20 -20 -20 -20 -20 -20 -20 -20
-20 -20 -20 -20 -18 -11 25 9 -18 -3 27 18 31 32 28 21 -12 -20 1 -3 -20 -20 -15 -20 -20 -20 -20 -20 -7 -20 -20 -20 -20 -20 -20 -20 -20 -20 19 -20 -20 -20 -20 -20
-20 -20 -20 -20 2 -20 33 -4 -0 19 6 22 13 15 26 12 11 -9 15 5 -19 -20 -20 -20 -20 -20 -20 -20 -20 -20 -20 -20 -20 -20 -20 -20 -20 -20 -20 -20 -20 -20 -20 -20
-20 -20 -20 -20 -20 -20 14 16 34 5 -12 22 22 23 26 25 -1 -3 26 28 -2 -18 -20 -20 -20 -20 -20 -20 -20 -20 -20 -20 -20 -20 -20 -20 -20 -20 -20 -20 -20 -20 -20 -20
-20 -20 -20 -20 -20 -20 -20 32 32 -20 12 29 -2 25 20 28 19 17 13 17 -20 -20 -19 10 -20 -20 -20 -20 -20 -20 -20 -20 -20 -20 -20 -20 -20 -20 -20 -20 -20 -20 -20 -20
-20 -20 -20 -20 -11 -5 -5 -5 30 -3 15 11 -13 8 30 30 22 23 31 -19 -20 -20 -19 -20 -20 -20 -20 -20 -20 -20 -20 -20 -20 -20 -20 -20 -20 -20 -20 -20 -20 -20 -20 -20
-20 -20 -20 -20 -20 -20 -20 -6 18 5 2 38 18 22 23 15 4 -6 11 28 -6 -13 -14 -3 -20 -20 -20 -20 -20 -20 -20 -20 -20 -20 -20 -20 -20 -20 -20 -20 -20 -20 -20 -20
-20 -20 -20 -20 -20 -20 -20 -18 -15 13 13 13 31 34 14 11 9 -15 27 22 -19 5 0 -20 8 -20 -20 -20 -20 -20 -20 -20 -20 -20 -20 -20 -20 -20 -20 -20 -20 -20 -20 -20
-20 -20 -20 -20 -20 -20 -6 -20 -20 -20 -3 -13 22 21 37 -4 0 -12 19 -9 -20 -20 -20 -20 -16 -12 -20 -20 28 -20 -20 -20 -20 -20 -20 -20 -20 -20 -20 -20 -20 -19 -20 -20
-20 -20 -20 -20 -20 -20 -20 -20 1 -20 -20 -4 -5 25 35 19 14 -0 -20 -20 -19 -16 -20 -20 -13 -20 -20 -20 -20 -16 -20 -20 -20 -20 -20 -20 -20 -20 -20 -20 -20 -20 -20 -20
-20 -20 -20 -20 -20 -20 -20 -20 -20 -20 -20 -7 -18 15 27 14 20 25 -20 -14 -20 -20 -16 -20 -16 15 -20 -8 -20 -20 -20 -20 -20 -20 -20 -20 -20 -20 -20 -20 -20 -20 -5 17
-20 -20 -20 -12 -4 -20 -20 -20 -20 -20 -20 -13 -20 -20 -0 4 -16 23 16 -10 -20 -20 -20 -14 10 -1 -20 -18 -20 28 -20 -20 -20 -20 -20 -20 -20 -20 -20 -20 -20 -20 -20 -20
-20 -20 -20 -18 -15 12 -20 -20 -20 -20 -20 -20 -20 -20 -20 -20 -20 18 25 30 29 -19 -20 -20 -20 -20 19 -20 -14 -10 9 -15 -20 -20 -20 -20 -20 -20 -20 -20 -20 -20 -20 -20
-20 -20 -20 -20 -20 -20 -20 -20 -20 -20 -20 -20 -20 -20 -20 -16 -16 12 -13 23 14 17 -20 -20 -20 -20 -13 -9 14 36 29 -17 -20 -20 -19 5 -20 7 -20 -20 -20 -20 -20 -20
-20 -20 -20 -20 -20 -20 -20 -20 -20 -20 -20 -20 -20 -20 -20 -20 -18 -20 -20 -20 -7 -20 -17 -20 -5 -18 -18 30 36 14 -18 27 -17 11 1 -20 -20 -20 25 5 15 3 1 -20
-20 -20 -20 -20 -20 -20 -20 -20 -20 -20 -20 -20 -20 -20 -20 -20 -20 -20 -20 -17 -20 -20 -20 -20 27 27 9 -17 29 23 20 32 23 29 37 34 29 33 35 -3 27 -20 6 30
-20 -20 -20 -20 -20 -20 3 -20 -20 -20 -20 -20 9 -0 -7 -20 -20 -20 -20 -11 46 37 32 32 -19 28 27 7 25 6 17 28 38 34 24 -18 -20 15 -6 15 -20 15 15 16
-20 -20 -20 -20 -20 -20 16 -20 -14 26 -19 -20 -6 -1 -20 -20 -20 -20 -20 -20 31 38 35 32 31 30 35 20 33 2 -20 7 12 -2 -20 -20 -20 -20 -20 -20 -20 13 27 25
-20 -11 -20 -20 -20 -20 -17 -13 -20 -9 -20 -20 -20 19 30 21 -20 -19 -20 -20 -16 16 10 33 28 32 30 27 15 -12 12 -8 -20 -20 -20 -20 -16 -20 -20 -10 11 25 -14 19
-20 -20 -12 -20 -20 -20 -20 -20 -2 -0 13 13 -6 25 -20 -20 -2 -8 -20 -19 26 -20 -18 -18 -6 35 37 28 18 14 -19 -10 1 -20 28 -18 -20 -20 -20 -20 -20 -14 31 33
-20 -20 -20 -20 -16 -20 -20 -20 -19 8 17 27 14 11 20 -20 -12 -20 10 -20 -20 -20 -20 17 2 14 29 -12 -0 -8 15 -11 16 -6 10 10 -11 -20 -20 -16 -20 -20 -20 -20
-20 -19 -20 -20 -14 12 -16 -20 -20 -20 9 -9 12 15 -20 -20 -20 -20 -18 -20 -16 -20 -19 18 21 19 11 5 10 29 0 -12 1 3 -7 -10 6 -20 -20 -20 -20 -20 -20 -20
-20 -20 -20 -20 -14 -20 -20 -16 -19 -20 10 11 24 -20 16 21 -0 -3 -9 -12 20 14 -20 -15 26 -15 19 28 13 22 20 16 -14 -20 -19 -1 -14 -16 -20 -20 -20 -20 -8 -20
-6 -20 -20 -20 -20 -12 9 -20 -20 -20 -12 3 16 14 13 -20 -20 -19 -16 -11 15 8 10 -1 15 -18 -3 7 -4 3 16 11 6 -11 -18 -9 -20 18 10 -20 -20 -20 -20 -20
-20 -20 -20 -20 -2 -20 -20 -20 -20 -20 -20 -20 -20 -20 -11 -20 -6 13 7 -13 -20 -10 3 3 -10 -20 -20 -20 2 -12 -5 21 22 17 13 9 -9 9 8 -19 4 -3 -20 -8
-20 -20 -20 -20 -20 -20 -20 -20 -20 -20 -20 -20 -20 -15 -20 -20 -20 -10 -2 -15 -20 -20 12 17 -4 -20 -20 -20 -20 -20 -20 -11 8 -12 12 11 3 10 10 1 23 19 11 13

GFSCGP_prec_radar_123.txt.gz
Reflectivity
-20 -20 -20 -20 -20 -20 -20 -20 -20 4 27 11 21 19 24 32 35 -9 -20 -20 -20 -20 -20 -6 -20 -20 -20 -20 -20 -20 -20 -20 -20 -20 -20 -20 -20 -20 -20 -20 -20 -20 -20 -20
-20 -20 -20 -20 -20 -20 -20 -20 -20 11 -12 21 31 16 30 18 18 -3 -20 -20 -20 -19 -20 -20 -20 -20 -20 -20 -20 -20 -20 -20 -20 -20 -20 6 -20 16 -20 -20 -20 -20 -20 -20
-20 -20 -20 -20 -20 -20 -20 -17 -18 31 25 15 28 8 32 26 -5 17 -20 -20 -20 -20 -20 -20 -20 -20 -20 -20 -20 -20 -20 -20 -20 -20 -20 -20 -20 -20 -20 -20 -20 -20 -20 -20
-20 -20 -20 -20 -20 2 -16 -20 -19 28 18 21 20 18 21 31 9 -19 -20 -20 -20 -20 -20 -20 -20 -20 -20 -20 -20 -20 -20 -20 -20 -20 -20 -20 -20 -20 -20 -20 -20 -20 -20 -20
-20 -20 -20 -20 -20 -20 -1 -20 -18 -18 11 -6 11 1 -20 19 28 -18 -20 -20 -20 -20 -20 -20 -20 -20 -20 -20 -20 -20 -20 -20 -20 -20 -20 -20 -20 -20 -20 -20 -20 -10 -20 -20
-20 -20 -20 -20 1 -17 3 -20 2 3 -6 -20 -4 9 -12 -20 23 27 5 -20 -20 -20 -20 -20 -20 -20 -20 -20 -20 -20 -20 -20 -20 -20 -20 -20 -20 -20 -20 -20 -20 -20 -20 -20
-20 -20 -20 -20 -20 -20 -20 -13 -20 -20 -11 -20 -20 1 -18 -19 -19 -6 15 -20 -20 -20 -20 -20 -20 -20 -20 -20 -20 -20 -20 -20 -20 -20 -20 -20 -20 -20 -20 -20 -19 -20 -20 -20
-20 -20 -20 -20 -20 -20 -20 -20 -9 -16 6 22 -20 -19 3 -20 -20 -2 23 16 6 -20 -20 -20 -20 -20 -20 -20 -20 -20 -20 -20 -20 -20 -20 -20 -20 -20 -20 -20 -20 -20 -20 -20
-13 -20 -20 -20 -20 -20 -20 -20 -18 -20 -13 -20 -20 12 -20 -20 -20 -20 18 10 -8 -20 -18 -9 -20 -20 -20 -20 -20 -20 -20 -20 -20 -20 -20 -20 -20 -20 -20 -20 -20 28 -20 -20
-20 -19 -20 -20 -20 -20 -20 -20 -11 -20 -20 -20 -20 1 -16 -20 -20 -20 -20 -20 -12 -17 3 11 -20 -20 -20 -20 -20 -20 -20 -20 -20 -20 -20 -20 -20 -20 -20 -20 -20 -20 -20 -15
-20 -20 -20 -20 -20 -20 -20 -20 -20 -20 -20 -20 -9 -4 -20 -19 -18 -20 -20 -20 -19 -19 -19 18 19 -20 -20 -20 -20 -20 -20 -20 -20 -20 -20 -20 -20 -20 -20 -20 -20 -20 -20 -20
-17 -20 -20 -20 -20 -13 -13 -20 -20 -20 -20 -20 -20 -7 -20 -20 -16 -20 -20 -20 -18 -6 7 19 11 8 -7 -20 -20 -20 -20 -20 -20 -20 -20 -20 -20 -20 -20 -20 -20 -20 -18 -20
-20 -6 18 -10 -20 -15 -20 -20 -20 -20 -20 -20 -20 -0 -20 -20 -20 -20 -20 -15 5 16 26 29 26 15 -20 -20 -20 -20 -20 -20 -20 -20 -20 -20 -20 -20 -20 -20 -20 -20 -20 -20
-20 -19 4 -20 -20 -20 -20 -20 -20 -20 -20 -20 -20 -6 -6 -20 -20 -20 -20 -16 -10 17 32 23 17 12 -16 -20 -20 -20 -20 -20 -20 -20 -20 -20 -20 -20 -20 -20 -20 -20 -20 -20
-20 -20 -20 -20 -20 -20 -20 -20 -20 -20 -20 -20 -20 -20 -19 -20 -16 -20 -20 -15 5 26 27 23 11 2 -18 -20 -20 -20 -20 -20 -20 -20 -20 -20 -20 -20 -20 -20 -20 -20 -20 -20
-20 -20 -20 -20 -20 -20 -20 -20 -20 -20 -20 -20 -20 -20 -20 -20 -10 -11 -20 -20 -12 -2 33 28 -3 -13 -14 -20 -20 -20 -20 -20 -19 -20 -20 -4 -20 -20 -20 -20 -20 -20 -20 -20
-20 -20 -20 -20 -20 -20 -20 -20 -20 -20 -20 -20 -13 -20 -10 -9 -19 5 -18 -11 27 30 31 31 26 7 -5 -15 -20 -20 -19 -6 32 -3 19 -20 -20 -3 -14 24 31 32 -20 5
-20 -20 -20 -20 -20 -20 -20 -20 -20 -20 -20 -20 -20 -20 -20 -9 -3 -17 1 -1 -17 -2 28 31 -13 -15 7 5 17 4 13 38 30 26 22 4 20 16 24 -2 2 -20 -12 -11
-20 -20 -20 -20 -20 -20 -20 -20 -20 -20 -20 -20 -20 -20 -20 -20 -20 -19 -16 -18 -20 -19 17 19 25 22 -7 5 18 30 23 30 31 38 -3 13 19 11 22 18 26 15 28 19
-20 -20 -20 -20 -20 -20 -20 -20 -20 -20 -20 -20 -20 -20 -20 -20 -20 -20 -20 -13 -20 -20 -12 -18 3 -19 4 32 39 43 36 37 33 39 33 29 21 30 32 29 27 20 26 8
-20 -20 -20 -20 -20 -20 -20 -20 -20 -20 -20 -20 -20 -20 -20 -20 -20 -20 -20 -19 -15 -20 -20 -19 -3 -7 -16 -19 9 37 39 34 26 11 26 36 32 34 36 25 9 -6 -1 -7
-20 -20 -20 -20 -20 -20 -20 -20 -20 -20 -20 -20 -20 -20 -20 -20 -20 -20 -20 -6 -11 -20 -20 7 3 13 -12 -8 4 27 21 19 33 36 42 46 41 39 33 28 23 7 -4 -1
-20 -20 -20 -20 -20 -20 -20 -20 -20 -20 -20 -20 -20 -20 -20 -20 -19 -20 -20 -20 -20 -19 -20 -4 12 -4 7 15 18 -13 27 36 36 39 41 43 38 28 12 13 8 1 2 8
-20 -20 -20 -20 -20 -20 -20 -20 -20 -20 -20 -20 -20 -20 -20 -20 -20 -20 -20 -20 -20 -20 11 -12 5 -19 -4 13 21 21 27 18 16 20 25 19 15 26 28 20 19 20 -2 -9
-20 -20 -20 -20 -20 -20 -20 -20 -20 -20 -20 -20 -20 -20 -20 -20 -20 -20 -20 -20 -20 -20 2 -3 -18 -20 -20 -20 -17 -20 -20 -19 5 -7 3 0 6 1 7 25 21 10 -17 -11
-20 -20 -20 -20 -20 -20 -20 -20 -20 -20 -20 -20 -20 -20 -20 -20 -20 -20 -20 -20 -20 -20 -18 3 -18 -20 -20 -20 -16 -20 -20 -17 -20 -16 -5 6 3 -1 -1 8 14 19 18 18